Location: Unspecified
(0.0000°N, 0.0000°E)
Time: 19:19:06
(UTC+00:00)

BEESAT - Pass Details

Date: 29 May 2019
Orbit: 701 x 709 km, 98.6° (Epoch: 16 June)

Event Time Altitude Azimuth Distance (km) Brightness Sun altitude
Rises 04:33:27 0° 168° (SSE) 3,096 ? -19.4°
Reaches altitude 10° 04:35:42 10° 168° (SSE) 2,176 ? -18.9°
Maximum altitude 04:40:29 88° 259° (W) 711 ? -17.8°
Drops below altitude 10° 04:45:15 10° 347° (NNW) 2,171 ? -16.7°
Sets 04:47:30 0° 347° (NNW) 3,087 ? -16.2°
